TimeCST,TemperatureF,Dew PointF,Humidity,Sea Level PressureIn,VisibilityMPH,Wind Direction,Wind SpeedMPH,Gust SpeedMPH,PrecipitationIn,Events,Conditions,WindDirDegrees,DateUTC
12:15 AM,66.4,61.7,85,30.14,10.0,SE,8.1,-,N/A,,Clear,140,2013-01-25 06:15:00
12:35 AM,65.8,61.9,87,30.14,10.0,SE,5.8,-,N/A,,Clear,140,2013-01-25 06:35:00
12:55 AM,65.3,61.9,89,30.14,10.0,SE,6.9,-,N/A,,Clear,130,2013-01-25 06:55:00
1:15 AM,64.9,62.1,90,30.12,10.0,SE,8.1,-,N/A,,Clear,130,2013-01-25 07:15:00
1:35 AM,64.6,61.9,91,30.12,10.0,SE,5.8,-,N/A,,Clear,140,2013-01-25 07:35:00
1:55 AM,64.4,61.9,92,30.12,10.0,SE,5.8,-,N/A,,Clear,140,2013-01-25 07:55:00
2:15 AM,64.0,61.7,92,30.11,10.0,SE,5.8,-,N/A,,Clear,140,2013-01-25 08:15:00
2:35 AM,63.7,61.7,93,30.11,10.0,SE,5.8,-,N/A,,Clear,130,2013-01-25 08:35:00
2:55 AM,63.5,61.2,92,30.11,10.0,SE,4.6,-,N/A,,Clear,130,2013-01-25 08:55:00
3:15 AM,63.0,61.0,93,30.10,7.0,SE,5.8,-,N/A,,Clear,130,2013-01-25 09:15:00
3:35 AM,62.8,61.0,94,30.10,7.0,SE,5.8,-,N/A,,Clear,130,2013-01-25 09:35:00
3:55 AM,62.6,60.8,94,30.08,5.0,SE,6.9,-,N/A,,Clear,130,2013-01-25 09:55:00
4:15 AM,62.2,60.6,94,30.08,5.0,SE,4.6,-,N/A,,Scattered Clouds,130,2013-01-25 10:15:00
4:35 AM,61.9,60.3,94,30.08,4.0,ESE,4.6,-,N/A,,Scattered Clouds,120,2013-01-25 10:35:00
4:55 AM,61.9,60.3,94,30.08,4.0,ESE,4.6,-,N/A,,Clear,120,2013-01-25 10:55:00
5:15 AM,61.3,59.9,95,30.08,3.0,ESE,4.6,-,N/A,,Clear,120,2013-01-25 11:15:00
5:35 AM,61.5,59.9,94,30.07,2.5,SE,6.9,-,N/A,,Mostly Cloudy,130,2013-01-25 11:35:00
5:55 AM,61.9,60.3,94,30.08,2.5,SE,5.8,-,N/A,,Overcast,130,2013-01-25 11:55:00
6:15 AM,62.4,60.8,94,30.08,0.8,SE,6.9,-,N/A,,Overcast,140,2013-01-25 12:15:00
6:35 AM,62.8,61.3,95,30.08,0.5,SE,6.9,-,N/A,Fog,Fog,130,2013-01-25 12:35:00
6:55 AM,63.1,61.7,95,30.08,1.5,SE,10.4,16.1,N/A,,Overcast,140,2013-01-25 12:55:00
7:35 AM,63.3,61.7,94,30.10,4.0,SE,11.5,-,N/A,,Overcast,140,2013-01-25 13:35:00
7:55 AM,63.1,61.7,95,30.09,4.0,SSE,10.4,17.3,N/A,,Overcast,150,2013-01-25 13:55:00
8:15 AM,63.5,61.9,94,30.10,4.0,SSE,8.1,-,N/A,,Overcast,150,2013-01-25 14:15:00
8:35 AM,63.5,61.9,94,30.11,5.0,SE,6.9,-,N/A,,Overcast,140,2013-01-25 14:35:00
8:55 AM,63.5,61.9,94,30.11,5.0,SE,10.4,-,N/A,,Overcast,140,2013-01-25 14:55:00
9:15 AM,63.9,62.1,94,30.11,7.0,SSE,5.8,-,N/A,,Overcast,150,2013-01-25 15:15:00
9:35 AM,64.6,62.2,92,30.12,7.0,SSE,8.1,-,N/A,,Overcast,150,2013-01-25 15:35:00
9:55 AM,65.5,61.2,86,30.13,10.0,SE,6.9,-,N/A,,Overcast,140,2013-01-25 15:55:00
10:15 AM,67.5,60.8,79,30.13,10.0,SE,6.9,-,N/A,,Overcast,140,2013-01-25 16:15:00
10:35 AM,69.8,60.1,71,30.13,10.0,SE,4.6,-,N/A,,Mostly Cloudy,140,2013-01-25 16:35:00
10:55 AM,70.9,59.9,68,30.13,10.0,SSE,3.5,-,N/A,,Scattered Clouds,160,2013-01-25 16:55:00
11:15 AM,72.7,59.5,63,30.13,10.0,SSE,4.6,-,N/A,,Clear,160,2013-01-25 17:15:00
11:35 AM,73.6,59.4,61,30.12,10.0,Calm,Calm,-,N/A,,Clear,0,2013-01-25 17:35:00
11:55 AM,74.8,59.2,58,30.11,10.0,ESE,3.5,-,N/A,,Clear,120,2013-01-25 17:55:00
12:15 PM,75.9,58.6,55,30.10,10.0,SSE,5.8,-,N/A,,Clear,150,2013-01-25 18:15:00
12:35 PM,77.2,57.7,51,30.09,10.0,Calm,Calm,-,N/A,,Clear,0,2013-01-25 18:35:00
12:55 PM,78.4,56.7,47,30.08,10.0,South,5.8,-,N/A,,Clear,190,2013-01-25 18:55:00
1:15 PM,79.3,56.8,46,30.07,10.0,ESE,4.6,-,N/A,,Clear,120,2013-01-25 19:15:00
1:35 PM,79.7,56.5,45,30.05,10.0,South,4.6,-,N/A,,Clear,190,2013-01-25 19:35:00
1:55 PM,81.0,56.1,42,30.04,10.0,SE,4.6,-,N/A,,Clear,130,2013-01-25 19:55:00
2:15 PM,82.6,55.2,39,30.03,10.0,SE,8.1,-,N/A,,Clear,130,2013-01-25 20:15:00
2:35 PM,83.8,54.3,36,30.02,10.0,ESE,8.1,-,N/A,,Clear,120,2013-01-25 20:35:00
2:55 PM,83.7,52.2,34,30.02,10.0,SE,10.4,-,N/A,,Clear,140,2013-01-25 20:55:00
3:15 PM,84.6,52.0,32,30.01,10.0,SE,5.8,-,N/A,,Clear,140,2013-01-25 21:15:00
3:35 PM,84.9,51.8,32,30.01,10.0,SE,4.6,-,N/A,,Clear,130,2013-01-25 21:35:00
3:55 PM,85.3,51.3,31,30.00,10.0,ESE,4.6,-,N/A,,Clear,120,2013-01-25 21:55:00
4:15 PM,85.1,50.5,30,30.00,10.0,SSE,3.5,-,N/A,,Clear,150,2013-01-25 22:15:00
4:35 PM,85.3,50.5,30,30.00,10.0,ESE,6.9,-,N/A,,Clear,120,2013-01-25 22:35:00
4:55 PM,84.9,50.5,30,30.00,10.0,ESE,6.9,-,N/A,,Clear,120,2013-01-25 22:55:00
5:15 PM,84.2,50.7,31,30.00,10.0,SE,3.5,-,N/A,,Clear,130,2013-01-25 23:15:00
5:35 PM,84.0,50.4,31,30.00,10.0,SE,3.5,-,N/A,,Clear,130,2013-01-25 23:35:00
5:55 PM,82.8,51.4,34,30.01,10.0,SE,4.6,-,N/A,,Clear,130,2013-01-25 23:55:00
6:15 PM,80.6,52.3,37,30.01,10.0,SSE,3.5,-,N/A,,Clear,150,2013-01-26 00:15:00
6:35 PM,78.3,53.6,42,30.01,10.0,Calm,Calm,-,N/A,,Clear,0,2013-01-26 00:35:00
6:55 PM,76.8,53.8,45,30.02,10.0,Calm,Calm,-,N/A,,Clear,0,2013-01-26 00:55:00
7:15 PM,75.0,54.0,48,30.02,10.0,SSE,3.5,-,N/A,,Clear,160,2013-01-26 01:15:00
7:35 PM,73.4,54.1,51,30.02,10.0,East,6.9,-,N/A,,Clear,100,2013-01-26 01:35:00
7:55 PM,74.7,57.9,56,30.03,10.0,ESE,9.2,-,N/A,,Clear,120,2013-01-26 01:55:00
8:15 PM,74.5,59.5,60,30.04,10.0,ESE,8.1,-,N/A,,Clear,120,2013-01-26 02:15:00
8:35 PM,73.9,59.5,61,30.03,10.0,ESE,11.5,17.3,N/A,,Clear,120,2013-01-26 02:35:00
8:55 PM,72.9,59.5,63,30.04,10.0,SE,6.9,-,N/A,,Clear,130,2013-01-26 02:55:00
9:15 PM,72.0,59.5,65,30.04,10.0,SE,6.9,-,N/A,,Clear,140,2013-01-26 03:15:00
9:35 PM,71.2,59.5,66,30.05,10.0,SE,10.4,-,N/A,,Clear,130,2013-01-26 03:35:00
9:55 PM,70.3,59.4,68,30.05,10.0,ESE,8.1,-,N/A,,Clear,120,2013-01-26 03:55:00
10:15 PM,69.8,59.4,69,30.06,10.0,SE,6.9,-,N/A,,Clear,130,2013-01-26 04:15:00
10:35 PM,69.3,59.4,71,30.07,10.0,SE,8.1,-,N/A,,Clear,130,2013-01-26 04:35:00
10:55 PM,68.9,59.4,72,30.07,10.0,ESE,8.1,-,N/A,,Clear,120,2013-01-26 04:55:00
11:15 PM,68.2,59.4,73,30.06,10.0,ESE,8.1,-,N/A,,Clear,120,2013-01-26 05:15:00
11:35 PM,67.6,59.4,75,30.06,10.0,ESE,8.1,-,N/A,,Clear,120,2013-01-26 05:35:00
11:55 PM,67.3,59.4,76,30.06,10.0,SE,6.9,-,N/A,,Clear,130,2013-01-26 05:55:00